{"data":{"norad_id":59134,"intl_designator":"2024-043AN","name":"JACKAL X-1L-002","alt_names":[],"object_type":"PAYLOAD","status":"ACTIVE","operator":null,"country":"US","launch_date":"2024-03-04","launch_site_code":"AFWTR","launch_vehicle":null,"mission":null,"orbit_class":"UNKNOWN","rcs_meters":null,"size_class":null,"mass_kg":null,"dimensions":null,"purposes":[],"wikipedia_slug":null,"has_3d_model":false,"image_url":null,"decayed_at":null,"tle_current":{"epoch":"2026-09-22T09:27:28.613088Z","epoch_age_seconds":94382,"freshness":"FRESH","line1":"1 59134U 24043AN  26265.39408117  .00013996  00000+0  25761-3 0  9990","line2":"2 59134  97.5694  55.7731 0006146 208.2599 151.8319 15.49284052142650","mean_motion":15.49284052,"eccentricity":0.0006146,"inclination_deg":97.5694,"raan_deg":55.7731,"arg_perigee_deg":208.2599,"mean_anomaly_deg":151.8319,"bstar":0.00025761,"rev_number":14265,"period_min":92.946157816643,"perigee_km":414.6418392323,"apogee_km":422.99665785301,"semimajor_km":6796.9562485427,"source":"CELESTRAK","updated_at":"2026-09-23T09:00:19.181600Z"}}}